This is the latest recevied weather packets stored in our database for station/object KD7KCN-5. If no packets are shown the sender has not sent any weather packets the latest 10 day(s).
| Time | Temp. | Humidity | Pressure | Rain* | Wind** | Luminosity | Snow |
|---|---|---|---|---|---|---|---|
| 1777186938 | 6.67° C | 80% | 1003.9 hPa | 0.51 mm | - | 0 W/m² | - |
| 1777186338 | 6.67° C | 79% | 1003.8 hPa | 0.25 mm | - | 0 W/m² | - |
| 1777185738 | 6.67° C | 79% | 1003.6 hPa | 0.25 mm | - | 0 W/m² | - |
| 1777185138 | 6.11° C | 83% | 1003.6 hPa | 0 mm | - | 0 W/m² | - |
| 1777184538 | 6.11° C | 84% | 1003.4 hPa | 0.25 mm | - | 0 W/m² | - |
| 1777183939 | 6.11° C | 85% | 1003.2 hPa | 0.76 mm | - | 0 W/m² | - |
| 1777183338 | 6.67° C | 83% | 1003.3 hPa | 0.76 mm | - | 0 W/m² | - |
| 1777182738 | 6.67° C | 80% | 1003.3 hPa | 0.76 mm | - | 0 W/m² | - |
| 1777182139 | 6.67° C | 79% | 1003.5 hPa | 1.02 mm | - | 0 W/m² | - |
| 1777181538 | 7.22° C | 78% | 1004 hPa | 1.02 mm | - | 0 W/m² | - |
| 1777180939 | 7.22° C | 76% | 1004.3 hPa | 0.76 mm | - | 0 W/m² | - |
| 1777180338 | 7.22° C | 75% | 1005.1 hPa | 0.51 mm | - | 0 W/m² | - |
| 1777179738 | 7.78° C | 74% | 1005.1 hPa | 0.25 mm | - | 0 W/m² | - |
| 1777179138 | 7.78° C | 73% | 1005 hPa | 0.25 mm | - | 0 W/m² | - |
| 1777178539 | 8.33° C | 68% | 1005.5 hPa | 0 mm | - | 0 W/m² | - |
| 1777177939 | 8.89° C | 65% | 1005.2 hPa | 0 mm | - | 0 W/m² | - |
| 1777177339 | 8.89° C | 62% | 1005 hPa | 0 mm | - | 0 W/m² | - |
| 1777176739 | 8.89° C | 61% | 1004.9 hPa | 0 mm | - | 0 W/m² | - |
| 1777176139 | 8.89° C | 61% | 1004.8 hPa | 0 mm | - | 0 W/m² | - |
| 1777175539 | 8.89° C | 62% | 1004.7 hPa | 0 mm | - | 0 W/m² | - |
| 1777174939 | 8.89° C | 61% | 1004.8 hPa | 0 mm | - | 0 W/m² | - |
| 1777174339 | 8.89° C | 63% | 1004.9 hPa | 0 mm | - | 0 W/m² | - |
| 1777173739 | 9.44° C | 57% | 1005.9 hPa | 0 mm | - | 0 W/m² | - |
| 1777173139 | 9.44° C | 57% | 1005.8 hPa | 0 mm | - | 0 W/m² | - |
| 1777172539 | 11.11° C | 50% | 1005.5 hPa | 0 mm | - | 0 W/m² | - |
* Rain latest hour (hover to see other rain measurements)
** Current wind speed in m/s (hover to see current wind gust speed)